This is the latest recevied weather packets stored in our database for station/object IK6IHU-3. If no packets are shown the sender has not sent any weather packets the latest 10 day(s).
| Time | Temp. | Humidity | Pressure | Rain* | Wind** | Luminosity | Snow |
|---|---|---|---|---|---|---|---|
| 1777560732 | 12.78° C | 62% | 1020.3 hPa | 0 mm | - | 0 W/m² | - |
| 1777560672 | 13.89° C | 62% | 1020.2 hPa | 0 mm | - | 0 W/m² | - |
| 1777560612 | 13.89° C | 62% | 1020 hPa | 0 mm | - | 0 W/m² | - |
| 1777560552 | 13.89° C | 62% | 1020.1 hPa | 0 mm | - | 0 W/m² | - |
| 1777560492 | 13.89° C | 62% | 1020.2 hPa | 0 mm | - | 0 W/m² | - |
| 1777560432 | 13.89° C | 62% | 1020.3 hPa | 0 mm | - | 0 W/m² | - |
| 1777560372 | 13.89° C | 63% | 1020.3 hPa | 0 mm | - | 0 W/m² | - |
| 1777560311 | 13.33° C | 62% | 1020 hPa | 0 mm | - | 0 W/m² | - |
| 1777560252 | 13.33° C | 62% | 1020.3 hPa | 0 mm | - | 0 W/m² | - |
| 1777560192 | 13.33° C | 60% | 1020.1 hPa | 0 mm | - | 0 W/m² | - |
| 1777560132 | 13.33° C | 62% | 1020.3 hPa | 0 mm | - | 0 W/m² | - |
| 1777560072 | 13.33° C | 60% | 1020 hPa | 0 mm | - | 0 W/m² | - |
| 1777560012 | 13.89° C | 61% | 1020.2 hPa | 0 mm | - | 0 W/m² | - |
| 1777559952 | 13.89° C | 61% | 1020.2 hPa | 0 mm | - | 0 W/m² | - |
| 1777559892 | 13.33° C | 60% | 1020.2 hPa | 0 mm | - | 0 W/m² | - |
| 1777559832 | 13.33° C | 60% | 1020.2 hPa | 0 mm | - | 0 W/m² | - |
| 1777559772 | 13.33° C | 62% | 1020.2 hPa | 0 mm | - | 0 W/m² | - |
| 1777559712 | 13.33° C | 61% | 1020.2 hPa | 0 mm | - | 0 W/m² | - |
| 1777559652 | 13.33° C | 62% | 1020.3 hPa | 0 mm | - | 0 W/m² | - |
| 1777559592 | 13.33° C | 62% | 1020.5 hPa | 0 mm | - | 0 W/m² | - |
| 1777559532 | 13.33° C | 63% | 1020.3 hPa | 0 mm | - | 0 W/m² | - |
| 1777559472 | 12.78° C | 62% | 1020.2 hPa | 0 mm | - | 0 W/m² | - |
| 1777559412 | 12.78° C | 62% | 1020 hPa | 0 mm | - | 0 W/m² | - |
| 1777559352 | 13.33° C | 62% | 1019.9 hPa | 0 mm | - | 0 W/m² | - |
| 1777559292 | 12.78° C | 60% | 1020.1 hPa | 0 mm | - | 0 W/m² | - |
* Rain latest hour (hover to see other rain measurements)
** Current wind speed in m/s (hover to see current wind gust speed)